SCP
0 0 0 0 0 0 0 0 0 0 0 0 0 0 0 0 0 0 0 0 -0 0 0 0 0 0 0 0 0 1 1 1 1 1 1 1 0 0 0 0 0 0 0
0 0 0 0 0 0 0 0 0 0 0 0 0 0 0 0 0 0 0 -0 0 0 0 0 0 0 0 0 0 0 1 1 1 1 1 0 0 0 0 0 0 0 0
0 0 0 0 0 0 0 0 0 0 0 0 0 0 0 0 0 0 0 -0 -0 -0 0 0 0 0 0 0 0 0 0 0 1 0 0 0 0 0 0 0 0 0 0
0 0 0 0 0 0 0 0 0 0 0 -0 0 0 0 0 0 0 0 0 -0 -0 0 0 0 0 0 0 0 0 0 0 0 1 1 0 0 0 0 0 0 0 0
0 0 0 0 0 0 0 0 0 0 0 0 0 0 0 0 0 0 0 0 -0 -0 0 0 0 0 0 0 0 0 0 0 0 1 1 1 1 0 0 0 0 0 0
0 0 0 0 0 0 0 0 0 0 0 0 0 0 0 0 0 -0 0 -0 0 0 -0 0 0 0 0 0 0 0 0 0 1 1 0 0 0 0 0 0 0 0 0
0 -0 -0 0 0 0 0 0 0 0 0 0 0 0 0 0 0 -0 -0 0 0 0 0 -0 0 0 0 0 0 0 0 0 1 1 1 1 0 0 0 0 0 0 0
-0 -0 -0 0 0 0 0 0 0 0 0 0 0 0 0 0 0 -0 0 -0 0 0 0 0 0 0 0 0 0 0 0 0 1 0 1 0 0 0 0 0 0 0 0
-0 -0 -0 0 0 0 0 0 0 0 0 0 0 0 0 0 0 0 0 -0 0 0 -0 0 0 0 0 0 0 0 0 1 1 1 0 0 0 0 0 0 0 0 0
-0 -0 -0 0 -0 -0 0 0 0 0 0 0 0 0 0 0 0 0 0 0 0 0 0 0 0 0 0 0 0 0 0 0 1 0 0 0 0 0 0 0 0 0 0
-0 -0 -0 -0 -0 -0 -0 0 0 0 0 0 -0 0 0 0 0 0 0 0 0 -0 0 0 0 0 0 0 0 0 0 0 0 0 0 0 0 0 0 0 0 0 0
-0 -0 -0 -0 -0 -0 -0 0 0 0 0 -0 -0 0 0 0 0 0 0 0 0 0 -0 -0 0 0 0 0 0 -0 0 -0 -0 0 0 0 0 0 0 0 0 0 0
-0 -0 -0 -0 -0 -0 -0 -0 0 0 0 -0 0 0 0 0 0 0 0 0 0 0 0 0 0 0 0 0 0 0 -0 0 -0 -0 0 0 0 0 0 0 0 0 0
-0 -0 -0 -0 -0 -0 -0 -0 -0 -0 0 0 0 0 0 0 0 0 0 0 0 0 -0 0 0 0 0 0 -0 -0 0 -0 -0 0 0 -0 -0 -0 0 -0 0 0 0
-0 -0 -0 -0 -0 -0 -0 -0 -0 -0 -0 -0 -0 0 0 0 0 0 0 0 0 0 0 0 0 0 0 0 0 0 0 -0 -0 -0 -0 0 0 -0 0 -0 -0 -0 -0
-0 -0 -0 -0 -0 -0 -0 -0 -0 -0 -0 -0 -0 -0 -0 0 0 0 0 0 0 0 0 0 -0 0 0 0 0 0 0 0 0 0 0 0 0 0 0 0 0 0 0
-0 -0 -0 -0 -0 -0 -0 -0 -0 -0 -0 -0 -0 -0 -0 -0 -0 0 0 0 0 0 0 -0 -0 0 0 0 0 0 0 0 0 0 0 0 0 0 0 0 0 0 0
-0 -0 -0 -0 -0 -0 -0 -0 -0 -0 -0 -0 -0 -0 -0 -0 -0 0 0 0 0 0 0 0 -0 -0 0 0 0 0 0 0 0 0 0 0 0 0 0 -0 -0 -0 -0
0 -0 -0 -0 -0 -0 -0 -0 -0 -0 -0 -0 -0 -0 -0 -0 -0 0 0 -0 0 0 0 0 0 -0 0 0 0 0 0 -0 0 0 0 -0 -0 0 0 -0 0 0 0
0 -0 -0 -0 -0 -0 -0 -0 -0 -0 -0 -0 -0 -0 -0 -0 -0 0 0 0 0 0 0 0 -0 -0 0 -0 0 0 0 0 0 0 -0 0 -0 -0 -0 -0 0 0 0
0 0 -0 -0 -0 -0 -0 -0 -0 -0 -0 -0 -0 -0 -0 -0 -0 0 0 -0 0 0 0 0 0 0 0 0 0 0 -0 0 -0 -0 -0 -0 0 0 0 0 0 0 0
0 -0 -0 -0 -0 -0 -0 -0 -0 -0 -0 -0 -0 -0 -0 -0 -0 -0 -0 -0 0 0 0 0 0 0 0 0 0 0 0 -0 0 0 0 0 0 0 0 0 0 0 0
0 0 -0 -0 0 0 -0 -0 -0 -0 -0 -0 -0 -0 -0 -0 -0 -0 -0 -0 0 0 0 0 0 0 0 0 0 -0 -0 0 0 0 0 -0 0 0 0 0 0 0 0
0 0 0 -0 -0 0 0 0 -0 -0 -0 0 0 0 -0 -0 -0 -0 0 0 -0 0 0 0 0 -0 -0 -0 -0 -0 -0 -0 0 0 0 0 0 0 0 0 0 0 0
0 0 0 0 0 0 0 0 0 -0 0 0 0 0 0 0 0 0 0 0 0 -0 0 0 0 0 0 0 0 0 0 0 0 0 0 0 0 0 0 0 0 0 0
0 0 0 0 0 0 0 0 0 -0 0 0 0 0 0 0 0 0 0 0 0 0 0 0 0 0 0 0 0 0 0 0 0 0 0 0 0 0 0 0 0 0 0
Wind_Speed_500mb
35 35 32 25 17 10 8 6 9 15 17 19 19 17 18 15 20 17 18 19 16 12 13 11 14 19 24 34 43 45 44 44 39 42 42 37 35 43 48 50 44 41 55
36 37 34 28 20 12 8 3 5 10 13 16 15 11 11 14 24 22 18 12 15 14 15 17 19 20 24 32 39 45 47 45 41 52 49 34 41 55 49 44 37 39 60
39 39 36 30 20 13 10 5 2 5 12 16 20 13 8 14 18 29 30 13 11 9 14 15 21 24 27 31 36 41 43 43 50 54 38 31 17 45 34 38 43 31 60
37 40 37 32 23 15 13 9 3 5 9 13 15 19 14 10 13 26 27 22 14 12 11 18 18 25 33 37 40 43 42 44 48 42 34 28 56 32 34 38 34 53 56
40 42 39 33 24 19 17 12 6 4 5 13 16 17 15 15 7 14 25 22 16 9 13 16 24 25 31 36 40 45 48 45 46 43 40 49 37 49 54 48 46 54 46
37 40 38 32 26 21 19 15 9 5 0 7 13 18 20 24 8 13 18 21 18 15 15 19 23 27 32 38 40 46 48 45 46 48 42 51 54 51 61 54 59 63 51
39 44 43 35 30 25 22 17 12 6 3 4 10 15 20 24 21 21 22 22 22 22 16 24 29 29 34 38 42 43 41 55 42 48 44 38 31 45 61 59 61 56 47
41 44 41 34 30 28 24 18 15 10 6 3 8 15 21 21 21 23 21 23 26 27 25 25 31 30 36 38 42 45 53 39 47 61 39 35 34 38 48 65 62 55 46
43 42 40 34 31 29 26 20 16 13 9 5 7 12 17 27 29 22 20 29 32 22 27 31 26 27 33 40 42 43 40 43 47 50 37 32 26 39 59 54 56 50 38
41 41 40 34 31 30 26 23 17 15 12 9 8 10 14 15 20 20 19 22 30 33 29 33 31 31 33 37 40 37 38 38 40 45 37 18 14 31 58 60 50 40 33
43 42 40 35 33 30 27 25 20 17 15 12 11 13 13 15 18 19 21 24 32 29 27 27 24 27 34 33 37 38 37 35 35 33 24 20 25 48 69 52 40 26 31
43 42 40 38 37 34 30 27 23 19 19 17 14 14 15 15 17 20 23 30 32 26 35 31 34 39 33 34 30 29 31 29 28 33 33 30 55 70 51 49 25 10 30
45 43 42 41 41 37 34 29 25 22 20 21 18 18 19 15 19 24 23 23 26 26 23 30 37 32 27 27 26 27 35 34 34 34 36 46 74 60 36 36 19 13 18
49 46 43 42 42 40 36 32 27 25 24 23 22 20 22 19 20 23 21 26 24 25 28 29 26 26 21 23 30 33 37 39 37 38 48 48 53 47 37 29 29 24 21
53 51 47 43 44 42 39 35 31 29 27 26 25 23 24 24 22 23 22 23 23 27 28 28 27 31 30 29 27 31 34 35 36 36 33 34 38 36 34 27 23 31 27
54 54 49 46 48 47 44 40 36 34 31 28 26 27 27 27 25 24 24 25 25 23 26 28 24 23 34 36 37 33 32 35 39 40 36 38 35 38 37 31 27 32 24
51 59 57 52 50 51 47 44 41 38 35 32 28 30 31 30 29 27 26 26 26 24 22 21 22 30 33 31 29 29 30 29 29 33 36 31 33 31 27 23 20 20 22
46 59 59 55 51 51 49 45 43 42 39 35 32 31 33 34 33 31 30 28 27 26 24 20 18 25 27 28 29 30 30 32 32 32 31 27 28 24 20 17 18 19 19
42 53 61 58 53 55 53 51 47 45 43 40 37 34 34 37 37 35 34 32 29 28 26 22 19 17 23 26 27 27 25 27 29 28 26 27 27 24 21 19 17 15 13
39 43 55 58 57 57 57 55 52 49 47 43 40 36 34 37 39 38 36 33 30 28 25 22 19 19 24 28 31 28 17 25 23 27 26 25 22 24 23 21 16 11 3
41 42 52 63 67 64 66 64 57 54 48 44 41 39 37 38 39 43 39 36 33 28 27 25 22 21 20 31 35 38 25 24 24 22 28 29 28 25 19 12 7 9 16
44 45 53 60 64 63 66 63 65 55 50 47 45 43 40 37 39 44 42 38 36 33 30 27 24 24 29 35 38 41 37 34 22 18 20 24 20 15 11 10 11 16 22
46 47 50 55 58 65 68 66 68 57 54 51 49 47 44 40 39 42 42 40 42 35 34 31 29 28 31 38 40 41 39 40 31 23 24 17 14 13 15 17 22 27 31
48 44 52 55 60 66 73 67 56 56 58 56 53 50 49 45 42 39 39 40 42 40 38 36 34 32 33 35 44 44 40 37 30 23 17 16 16 18 21 24 26 26 24
44 42 50 56 60 60 65 63 59 59 63 64 60 57 52 54 49 46 44 43 42 44 41 40 38 40 39 38 43 42 39 33 23 19 18 17 18 21 20 16 11 9 9
48 44 43 48 54 57 60 64 65 65 69 70 68 64 57 54 50 47 45 47 43 50 48 44 40 40 40 43 42 39 33 28 24 20 18 18 18 16 12 9 20 29 25
Wind_Direction_500mb
213 206 205 202 204 223 250 280 305 313 342 341 355 345 342 346 334 330 304 256 237 237 220 177 172 163 173 171 172 169 165 160 168 155 157 150 150 170 168 156 156 159 164
203 199 199 198 200 210 224 247 304 325 352 336 352 6 348 16 44 32 19 58 171 201 188 181 168 172 166 164 165 164 161 162 166 153 154 130 139 151 168 164 164 169 177
199 195 195 197 197 200 199 197 263 18 356 12 0 10 356 7 32 45 42 64 144 176 180 174 176 173 167 164 164 164 164 155 163 163 163 139 144 156 147 160 166 163 169
195 194 193 193 193 195 183 180 188 64 353 16 357 354 18 1 39 44 35 50 120 151 182 186 185 170 174 174 174 168 164 161 162 159 158 161 161 144 140 160 168 166 164
189 189 190 189 188 186 181 182 173 96 14 4 14 13 23 30 70 41 32 39 94 79 136 160 184 184 176 175 172 169 162 160 165 161 150 154 152 160 152 145 171 165 171
182 182 182 182 181 182 182 183 177 135 64 5 18 22 22 23 64 72 52 65 68 81 120 142 153 164 165 168 165 162 161 162 151 152 152 156 159 167 161 142 148 165 168
177 176 177 179 180 182 183 177 173 162 134 36 35 21 13 11 69 99 79 70 59 58 105 139 135 138 147 153 155 158 163 157 158 153 144 158 164 168 167 158 148 145 154
173 176 177 178 183 183 184 178 174 178 161 78 50 37 34 43 73 103 67 52 63 51 118 120 129 123 136 141 143 148 155 150 148 148 141 143 159 172 173 161 155 148 136
170 175 176 180 182 183 182 178 173 179 174 148 88 66 59 78 84 72 57 66 68 67 88 111 112 122 125 135 146 148 147 149 153 162 140 131 139 160 169 165 155 159 150
170 177 179 181 182 182 183 180 176 180 178 158 120 105 84 85 75 72 71 62 69 86 99 111 111 117 127 140 150 151 152 148 148 158 167 162 122 165 165 161 159 159 158
174 178 181 182 182 181 183 182 181 180 179 163 146 128 107 100 93 76 81 94 82 87 104 112 117 118 123 134 142 148 143 143 147 162 171 197 143 155 152 154 149 147 171
178 178 180 183 182 182 184 182 182 183 183 170 159 140 127 117 101 94 93 104 104 83 94 101 110 130 119 124 137 151 152 161 152 156 177 184 167 149 155 161 140 138 198
181 180 182 186 186 186 187 184 181 184 182 174 169 151 141 132 121 109 108 111 103 109 99 101 95 99 119 132 132 122 134 137 143 151 166 169 165 164 148 158 150 165 154
184 184 186 189 189 188 189 187 182 185 184 176 173 164 150 145 134 122 110 112 118 109 111 100 104 103 106 110 129 132 127 125 130 132 146 146 165 165 159 165 168 164 162
189 190 189 191 191 189 189 190 184 184 184 180 176 173 161 155 145 143 135 125 122 122 119 113 115 110 105 112 118 127 133 135 133 135 137 145 154 165 156 171 152 159 157
196 194 192 192 192 190 189 188 185 184 183 181 179 176 170 164 160 154 148 141 135 130 126 122 122 132 131 128 124 120 126 132 137 145 150 151 158 156 156 158 156 149 156
201 198 196 194 192 191 188 188 185 183 184 182 180 176 176 172 169 161 156 151 148 147 141 134 127 134 137 137 136 131 130 128 128 126 128 129 143 150 153 150 154 165 168
202 202 197 195 193 190 188 187 186 185 186 186 185 181 179 179 175 170 167 163 158 155 151 144 140 152 152 149 147 142 144 145 147 148 143 158 159 164 164 169 172 178 192
205 204 200 196 191 188 188 185 187 188 189 190 190 187 182 182 181 177 177 170 167 166 163 160 157 170 174 171 168 150 155 163 161 163 170 173 178 176 172 163 168 172 177
207 201 198 194 193 190 187 187 189 192 193 192 192 190 186 184 184 184 183 179 177 175 172 176 176 184 189 185 178 165 163 177 175 183 184 178 169 163 158 151 154 142 179
206 198 194 194 194 190 189 188 191 196 194 191 191 191 189 186 186 187 188 186 183 188 180 186 187 186 193 179 173 159 157 169 165 171 166 162 158 154 159 163 165 205 231
198 191 189 194 195 194 193 193 193 195 193 191 190 192 191 186 187 188 188 188 185 189 188 189 188 188 186 178 172 166 161 161 152 155 162 165 167 173 196 228 259 273 279
191 191 190 192 195 197 198 198 197 191 192 192 191 190 191 186 192 187 187 186 190 190 190 191 186 186 186 180 176 177 170 163 144 178 191 184 196 221 250 264 272 275 280
190 192 191 192 197 200 203 204 196 193 192 193 193 191 191 188 192 190 192 188 191 188 188 189 186 185 184 186 182 182 181 183 184 181 187 213 237 256 271 279 277 276 284
193 193 194 198 200 201 204 203 199 195 195 194 193 192 194 193 196 191 193 192 200 189 190 192 189 187 190 192 197 195 195 194 194 204 226 241 251 260 264 279 298 290 306
199 198 199 204 204 204 202 202 201 199 196 195 195 196 194 197 197 197 198 196 202 195 192 197 195 201 201 201 209 202 204 197 196 211 216 230 234 235 236 228 202 207 209
Wind_Speed_850mb
35 35 32 25 17 10 8 6 9 15 17 19 19 17 18 15 20 17 18 19 16 12 13 11 14 19 24 34 43 45 44 44 39 42 42 37 35 43 48 50 44 41 55
36 37 34 28 20 12 8 3 5 10 13 16 15 11 11 14 24 22 18 12 15 14 15 17 19 20 24 32 39 45 47 45 41 52 49 34 41 55 49 44 37 39 60
39 39 36 30 20 13 10 5 2 5 12 16 20 13 8 14 18 29 30 13 11 9 14 15 21 24 27 31 36 41 43 43 50 54 38 31 17 45 34 38 43 31 60
37 40 37 32 23 15 13 9 3 5 9 13 15 19 14 10 13 26 27 22 14 12 11 18 18 25 33 37 40 43 42 44 48 42 34 28 56 32 34 38 34 53 56
40 42 39 33 24 19 17 12 6 4 5 13 16 17 15 15 7 14 25 22 16 9 13 16 24 25 31 36 40 45 48 45 46 43 40 49 37 49 54 48 46 54 46
37 40 38 32 26 21 19 15 9 5 0 7 13 18 20 24 8 13 18 21 18 15 15 19 23 27 32 38 40 46 48 45 46 48 42 51 54 51 61 54 59 63 51
39 44 43 35 30 25 22 17 12 6 3 4 10 15 20 24 21 21 22 22 22 22 16 24 29 29 34 38 42 43 41 55 42 48 44 38 31 45 61 59 61 56 47
41 44 41 34 30 28 24 18 15 10 6 3 8 15 21 21 21 23 21 23 26 27 25 25 31 30 36 38 42 45 53 39 47 61 39 35 34 38 48 65 62 55 46
43 42 40 34 31 29 26 20 16 13 9 5 7 12 17 27 29 22 20 29 32 22 27 31 26 27 33 40 42 43 40 43 47 50 37 32 26 39 59 54 56 50 38
41 41 40 34 31 30 26 23 17 15 12 9 8 10 14 15 20 20 19 22 30 33 29 33 31 31 33 37 40 37 38 38 40 45 37 18 14 31 58 60 50 40 33
43 42 40 35 33 30 27 25 20 17 15 12 11 13 13 15 18 19 21 24 32 29 27 27 24 27 34 33 37 38 37 35 35 33 24 20 25 48 69 52 40 26 31
43 42 40 38 37 34 30 27 23 19 19 17 14 14 15 15 17 20 23 30 32 26 35 31 34 39 33 34 30 29 31 29 28 33 33 30 55 70 51 49 25 10 30
45 43 42 41 41 37 34 29 25 22 20 21 18 18 19 15 19 24 23 23 26 26 23 30 37 32 27 27 26 27 35 34 34 34 36 46 74 60 36 36 19 13 18
49 46 43 42 42 40 36 32 27 25 24 23 22 20 22 19 20 23 21 26 24 25 28 29 26 26 21 23 30 33 37 39 37 38 48 48 53 47 37 29 29 24 21
53 51 47 43 44 42 39 35 31 29 27 26 25 23 24 24 22 23 22 23 23 27 28 28 27 31 30 29 27 31 34 35 36 36 33 34 38 36 34 27 23 31 27
54 54 49 46 48 47 44 40 36 34 31 28 26 27 27 27 25 24 24 25 25 23 26 28 24 23 34 36 37 33 32 35 39 40 36 38 35 38 37 31 27 32 24
51 59 57 52 50 51 47 44 41 38 35 32 28 30 31 30 29 27 26 26 26 24 22 21 22 30 33 31 29 29 30 29 29 33 36 31 33 31 27 23 20 20 22
46 59 59 55 51 51 49 45 43 42 39 35 32 31 33 34 33 31 30 28 27 26 24 20 18 25 27 28 29 30 30 32 32 32 31 27 28 24 20 17 18 19 19
42 53 61 58 53 55 53 51 47 45 43 40 37 34 34 37 37 35 34 32 29 28 26 22 19 17 23 26 27 27 25 27 29 28 26 27 27 24 21 19 17 15 13
39 43 55 58 57 57 57 55 52 49 47 43 40 36 34 37 39 38 36 33 30 28 25 22 19 19 24 28 31 28 17 25 23 27 26 25 22 24 23 21 16 11 3
41 42 52 63 67 64 66 64 57 54 48 44 41 39 37 38 39 43 39 36 33 28 27 25 22 21 20 31 35 38 25 24 24 22 28 29 28 25 19 12 7 9 16
44 45 53 60 64 63 66 63 65 55 50 47 45 43 40 37 39 44 42 38 36 33 30 27 24 24 29 35 38 41 37 34 22 18 20 24 20 15 11 10 11 16 22
46 47 50 55 58 65 68 66 68 57 54 51 49 47 44 40 39 42 42 40 42 35 34 31 29 28 31 38 40 41 39 40 31 23 24 17 14 13 15 17 22 27 31
48 44 52 55 60 66 73 67 56 56 58 56 53 50 49 45 42 39 39 40 42 40 38 36 34 32 33 35 44 44 40 37 30 23 17 16 16 18 21 24 26 26 24
44 42 50 56 60 60 65 63 59 59 63 64 60 57 52 54 49 46 44 43 42 44 41 40 38 40 39 38 43 42 39 33 23 19 18 17 18 21 20 16 11 9 9
48 44 43 48 54 57 60 64 65 65 69 70 68 64 57 54 50 47 45 47 43 50 48 44 40 40 40 43 42 39 33 28 24 20 18 18 18 16 12 9 20 29 25
Wind_Direction_850mb
213 206 205 202 204 223 250 280 305 313 342 341 355 345 342 346 334 330 304 256 237 237 220 177 172 163 173 171 172 169 165 160 168 155 157 150 150 170 168 156 156 159 164
203 199 199 198 200 210 224 247 304 325 352 336 352 6 348 16 44 32 19 58 171 201 188 181 168 172 166 164 165 164 161 162 166 153 154 130 139 151 168 164 164 169 177
199 195 195 197 197 200 199 197 263 18 356 12 0 10 356 7 32 45 42 64 144 176 180 174 176 173 167 164 164 164 164 155 163 163 163 139 144 156 147 160 166 163 169
195 194 193 193 193 195 183 180 188 64 353 16 357 354 18 1 39 44 35 50 120 151 182 186 185 170 174 174 174 168 164 161 162 159 158 161 161 144 140 160 168 166 164
189 189 190 189 188 186 181 182 173 96 14 4 14 13 23 30 70 41 32 39 94 79 136 160 184 184 176 175 172 169 162 160 165 161 150 154 152 160 152 145 171 165 171
182 182 182 182 181 182 182 183 177 135 64 5 18 22 22 23 64 72 52 65 68 81 120 142 153 164 165 168 165 162 161 162 151 152 152 156 159 167 161 142 148 165 168
177 176 177 179 180 182 183 177 173 162 134 36 35 21 13 11 69 99 79 70 59 58 105 139 135 138 147 153 155 158 163 157 158 153 144 158 164 168 167 158 148 145 154
173 176 177 178 183 183 184 178 174 178 161 78 50 37 34 43 73 103 67 52 63 51 118 120 129 123 136 141 143 148 155 150 148 148 141 143 159 172 173 161 155 148 136
170 175 176 180 182 183 182 178 173 179 174 148 88 66 59 78 84 72 57 66 68 67 88 111 112 122 125 135 146 148 147 149 153 162 140 131 139 160 169 165 155 159 150
170 177 179 181 182 182 183 180 176 180 178 158 120 105 84 85 75 72 71 62 69 86 99 111 111 117 127 140 150 151 152 148 148 158 167 162 122 165 165 161 159 159 158
174 178 181 182 182 181 183 182 181 180 179 163 146 128 107 100 93 76 81 94 82 87 104 112 117 118 123 134 142 148 143 143 147 162 171 197 143 155 152 154 149 147 171
178 178 180 183 182 182 184 182 182 183 183 170 159 140 127 117 101 94 93 104 104 83 94 101 110 130 119 124 137 151 152 161 152 156 177 184 167 149 155 161 140 138 198
181 180 182 186 186 186 187 184 181 184 182 174 169 151 141 132 121 109 108 111 103 109 99 101 95 99 119 132 132 122 134 137 143 151 166 169 165 164 148 158 150 165 154
184 184 186 189 189 188 189 187 182 185 184 176 173 164 150 145 134 122 110 112 118 109 111 100 104 103 106 110 129 132 127 125 130 132 146 146 165 165 159 165 168 164 162
189 190 189 191 191 189 189 190 184 184 184 180 176 173 161 155 145 143 135 125 122 122 119 113 115 110 105 112 118 127 133 135 133 135 137 145 154 165 156 171 152 159 157
196 194 192 192 192 190 189 188 185 184 183 181 179 176 170 164 160 154 148 141 135 130 126 122 122 132 131 128 124 120 126 132 137 145 150 151 158 156 156 158 156 149 156
201 198 196 194 192 191 188 188 185 183 184 182 180 176 176 172 169 161 156 151 148 147 141 134 127 134 137 137 136 131 130 128 128 126 128 129 143 150 153 150 154 165 168
202 202 197 195 193 190 188 187 186 185 186 186 185 181 179 179 175 170 167 163 158 155 151 144 140 152 152 149 147 142 144 145 147 148 143 158 159 164 164 169 172 178 192
205 204 200 196 191 188 188 185 187 188 189 190 190 187 182 182 181 177 177 170 167 166 163 160 157 170 174 171 168 150 155 163 161 163 170 173 178 176 172 163 168 172 177
207 201 198 194 193 190 187 187 189 192 193 192 192 190 186 184 184 184 183 179 177 175 172 176 176 184 189 185 178 165 163 177 175 183 184 178 169 163 158 151 154 142 179
206 198 194 194 194 190 189 188 191 196 194 191 191 191 189 186 186 187 188 186 183 188 180 186 187 186 193 179 173 159 157 169 165 171 166 162 158 154 159 163 165 205 231
198 191 189 194 195 194 193 193 193 195 193 191 190 192 191 186 187 188 188 188 185 189 188 189 188 188 186 178 172 166 161 161 152 155 162 165 167 173 196 228 259 273 279
191 191 190 192 195 197 198 198 197 191 192 192 191 190 191 186 192 187 187 186 190 190 190 191 186 186 186 180 176 177 170 163 144 178 191 184 196 221 250 264 272 275 280
190 192 191 192 197 200 203 204 196 193 192 193 193 191 191 188 192 190 192 188 191 188 188 189 186 185 184 186 182 182 181 183 184 181 187 213 237 256 271 279 277 276 284
193 193 194 198 200 201 204 203 199 195 195 194 193 192 194 193 196 191 193 192 200 189 190 192 189 187 190 192 197 195 195 194 194 204 226 241 251 260 264 279 298 290 306
199 198 199 204 204 204 202 202 201 199 196 195 195 196 194 197 197 197 198 196 202 195 192 197 195 201 201 201 209 202 204 197 196 211 216 230 234 235 236 228 202 207 209